Location: Ahausen
(50.4985°N, 8.2722°E)
Time: 09:44:39
(UTC+00:00)

Cosmos 1072 Rocket - Pass Details

Date: 18 September 2020
Orbit: 949 x 1008 km, 82.9° (Epoch: 25 October)

Event Time Altitude Azimuth Distance (km) Brightness Sun altitude
Rises 18:48:28 0° 181° (S) 3,649 7.3 -12.6°
Reaches altitude 10° 18:50:57 10° 179° (S) 2,715 6.6 -12.9°
Maximum altitude 18:57:09 74° 96° (E) 1,026 4.5 -13.9°
Drops below altitude 10° 19:03:30 10° 13° (NNE) 2,774 7.0 -14.8°
Sets 19:06:03 0° 11° (NNE) 3,734 7.7 -15.2°
